Theta_e
351 350 347 349 349 347 349 348 348 348 348 349 347 348 349 347 347 349 347 347 351 351 351 350 348 347 347 349 348 347 346 349 352
352 351 347 348 349 349 349 346 348 349 349 348 347 347 349 347 345 345 347 346 347 349 348 350 348 347 349 347 348 349 348 348 349
351 350 348 349 347 347 346 347 346 348 349 348 348 347 349 348 348 345 346 347 347 347 348 348 348 348 348 349 348 347 347 351 349
352 350 350 350 347 346 345 346 344 347 348 348 348 346 346 347 348 349 347 348 348 348 348 348 348 348 347 347 347 349 349 349 351
351 350 349 350 348 347 345 344 344 348 350 348 348 349 347 347 345 345 349 348 347 347 347 345 346 347 347 348 348 350 351 352 352
349 349 348 349 349 348 347 345 344 345 347 348 345 346 348 346 345 346 350 351 351 348 346 345 348 347 347 347 347 347 348 348 350
348 349 349 349 348 348 348 347 346 346 345 344 342 342 344 346 345 346 350 348 347 348 347 345 348 349 349 349 349 349 348 348 350
348 348 347 348 349 348 348 348 347 346 344 345 343 341 341 343 344 346 346 347 347 347 348 348 348 349 351 351 351 350 350 350 351
346 346 345 346 346 345 345 346 346 346 345 344 344 342 341 341 341 342 343 343 344 344 345 346 346 347 348 349 351 350 350 351 353
343 343 342 342 341 339 341 343 344 344 344 343 343 342 342 340 339 339 339 339 339 339 339 340 342 344 345 343 344 346 348 349 350
339 338 337 336 330 328 330 334 336 337 340 340 340 339 339 338 338 338 337 337 337 337 337 337 340 344 339 337 338 345 347 347 348
334 331 329 327 325 324 324 326 328 328 328 331 332 332 333 334 333 334 334 334 334 333 334 336 341 338 331 328 327 331 338 340 342
329 326 325 322 322 321 322 321 321 322 320 320 321 321 322 323 324 326 326 329 328 330 332 335 333 329 325 321 320 322 322 325 327
327 324 321 320 319 317 317 318 318 318 319 317 316 316 317 318 320 321 321 322 326 329 332 330 324 319 318 319 318 319 321 322 320
321 319 317 316 315 315 314 315 315 314 313 313 313 314 315 315 316 316 317 320 323 327 323 318 318 317 315 313 312 313 315 316 316
320 318 318 317 315 314 314 314 315 314 312 311 311 312 312 313 313 314 314 315 315 316 315 315 313 314 314 310 310 311 312 313 314
320 319 317 316 315 314 313 312 311 311 310 310 310 310 310 310 311 310 310 311 311 311 311 312 312 310 309 306 304 304 304 304 305
317 316 315 315 315 313 311 310 309 308 308 309 309 308 308 308 308 308 307 306 307 304 302 305 306 305 303 303 301 298 297 299 300
314 313 313 313 313 312 310 308 307 307 307 307 307 307 306 306 305 305 305 303 300 298 298 298 298 298 299 297 296 296 297 298 298
315 313 312 312 311 311 309 308 307 307 306 305 305 305 304 303 303 302 302 302 302 300 296 295 295 295 295 295 296 296 297 297 298
Wind_Speed
18 19 15 16 22 21 24 24 23 21 21 23 25 21 19 18 15 9 7 7 7 6 8 7 7 6 7 6 5 5 5 5 4
18 18 17 13 22 24 24 23 26 24 20 18 19 20 19 18 16 13 9 7 6 5 5 9 8 6 6 6 6 6 6 7 7
18 18 17 15 19 23 21 16 14 13 17 20 19 19 19 18 16 14 12 9 7 5 5 6 9 8 8 9 9 7 8 7 8
17 17 17 17 21 20 27 15 16 10 14 17 19 20 21 20 17 15 14 11 8 6 4 3 4 5 6 6 9 10 10 9 9
13 15 15 13 21 20 22 25 12 6 10 16 18 17 23 22 19 17 14 14 12 9 7 7 6 5 6 7 6 7 9 9 8
11 12 12 12 16 20 21 20 24 15 9 9 9 11 15 19 17 16 14 14 13 13 11 10 8 9 7 7 7 7 10 9 10
10 10 13 12 11 16 19 22 24 21 15 16 13 8 4 10 16 16 13 14 15 13 11 10 8 8 8 7 8 8 8 9 10
9 8 9 11 11 13 15 17 18 15 19 17 10 2 1 3 6 11 10 9 9 9 8 7 6 6 7 8 8 7 8 10 10
9 7 7 9 9 13 14 16 18 18 21 21 19 19 18 16 12 13 11 10 12 11 10 8 5 4 2 3 4 10 13 13 12
9 8 7 7 7 10 11 15 19 19 22 21 21 21 20 19 17 14 14 12 12 14 12 12 10 10 9 5 1 8 11 12 13
10 9 7 7 12 14 17 21 24 25 26 25 24 20 17 14 15 13 12 9 6 6 8 9 10 10 10 10 11 3 1 3 2
10 9 11 14 16 19 20 22 24 26 24 25 22 18 16 12 10 10 8 7 6 5 5 6 10 14 13 15 15 11 9 8 8
14 16 15 18 18 23 26 23 26 28 24 21 15 15 15 13 11 9 9 7 8 6 10 17 17 18 17 16 17 16 16 12 12
16 18 20 21 20 18 18 19 19 18 16 15 12 12 13 13 12 12 10 10 10 13 19 19 18 19 19 17 14 12 12 10 13
16 18 18 17 20 17 12 12 14 15 14 11 11 9 12 12 12 10 12 15 16 20 19 18 14 13 15 15 12 13 12 13 11
14 17 16 14 15 15 12 9 8 10 8 8 10 9 10 10 11 12 12 12 12 12 11 10 10 9 8 7 7 8 8 7 5
13 14 14 14 13 13 11 8 8 9 8 7 8 9 9 9 9 10 9 9 9 9 8 6 6 6 6 6 7 9 10 10 9
7 8 10 10 10 10 9 8 8 7 8 9 9 9 8 8 9 9 11 11 9 10 10 6 6 7 6 5 7 8 9 9 8
9 6 7 7 7 7 7 7 7 6 7 7 9 10 8 7 8 9 10 12 15 15 14 11 12 10 8 7 6 4 4 4 5
18 16 13 10 10 8 8 7 7 6 8 8 7 8 8 7 8 9 10 10 10 12 11 11 12 13 11 10 8 7 7 6 9
Wind_Direction
190 199 202 198 197 185 187 185 192 200 204 211 213 212 216 216 209 204 213 220 209 228 231 215 222 237 225 217 206 210 211 210 217
181 192 187 184 190 191 190 183 191 201 205 213 212 213 213 222 221 218 219 213 223 261 264 222 230 231 222 231 228 221 218 219 227
183 185 187 175 175 171 166 175 185 203 210 214 215 210 214 216 223 228 222 222 226 260 266 223 232 244 244 244 236 232 241 225 219
178 180 183 180 175 167 166 187 204 232 223 231 217 216 216 219 221 220 223 227 230 245 243 246 256 246 234 246 244 226 235 233 225
179 180 179 177 177 175 169 174 180 239 228 239 233 224 224 223 225 226 224 228 235 238 218 254 276 260 252 248 241 223 229 227 240
169 161 157 161 166 175 174 167 179 209 210 181 213 232 228 233 233 230 222 228 233 239 243 240 255 252 246 251 240 247 245 237 238
172 167 170 170 166 172 172 170 162 160 148 132 111 86 93 193 218 223 216 222 228 232 237 230 228 238 248 259 260 254 257 255 261
159 157 174 182 180 178 179 183 189 182 184 190 174 212 131 152 178 183 180 185 184 184 183 193 203 218 235 242 253 258 260 265 271
160 151 142 145 168 184 187 187 183 188 184 183 190 185 164 148 138 130 129 132 135 132 125 126 133 128 152 218 225 247 250 252 258
157 153 141 128 118 118 139 152 166 159 159 171 171 169 170 168 160 148 133 127 125 116 108 102 95 91 88 94 284 272 253 247 246
144 130 110 104 105 108 113 125 134 137 143 144 144 144 152 165 162 152 149 145 136 122 115 108 103 96 99 85 61 43 277 231 213
143 127 111 113 115 114 114 118 125 123 120 127 128 128 134 143 138 156 155 170 175 178 126 116 117 117 97 92 81 72 71 88 114
129 122 119 111 109 112 113 116 120 117 114 111 112 119 119 122 121 117 128 126 124 132 141 125 124 119 112 98 84 77 74 76 78
120 121 114 113 110 100 108 118 116 101 107 99 100 105 112 109 109 112 112 117 118 125 128 125 119 109 101 90 80 81 81 73 67
119 116 112 113 106 103 104 108 111 103 97 103 108 111 110 108 111 102 111 114 114 126 129 127 117 109 91 86 80 75 76 71 72
120 117 118 115 109 102 89 81 93 108 110 118 117 116 106 103 105 106 108 107 109 104 110 105 96 85 89 85 61 40 55 65 57
126 127 125 126 122 112 102 95 98 110 120 125 120 114 114 111 106 104 96 90 87 90 84 90 94 87 75 52 36 16 6 1 355
120 126 130 128 126 123 122 121 119 127 131 131 124 119 118 114 113 107 98 91 83 86 81 106 100 78 62 41 35 16 15 10 9
147 161 159 145 140 139 139 136 134 139 135 141 138 132 129 131 129 126 119 108 93 88 94 94 95 108 113 72 75 47 42 72 47
186 192 188 189 175 161 160 158 154 161 155 157 147 142 130 132 126 122 126 132 136 118 93 93 87 84 87 94 86 67 58 67 59